Location: Gleizolles
(44.4833°N, 6.7667°E)
Time: 10:31:10
(UTC+00:00)

A-11 Canister half - Pass Details

Date: 20 June 2024
Orbit: 1515 x 1685 km, 47.2° (Epoch: 13 July)

Event Time Altitude Azimuth Distance (km) Brightness Sun altitude
Rises 02:27:40 0° 286° (WNW) 4,782 11.3 -11.4°
Reaches altitude 10° 02:33:20 10° 260° (W) 3,752 10.6 -10.8°
Maximum altitude 02:36:44 12° 238° (WSW) 3,534 10.3 -10.4°
Enters shadow 02:38:24 12° 227° (SW) 3,570 10.2 -10.2°
